Weather History for Oklahoma City, OK

Change the Weather History Date:

Wednesday, March 27, 2013

  Actual Average Record
Temperature  
Mean Temperature 55 °F 55 °F  
Max Temperature 70 °F 67 °F 90 °F (1895)
Min Temperature 39 °F 44 °F 13 °F (1913)
Degree Days  
Heating Degree Days 10 10  
Month to date heating degree days 467 371  
Since 1 July heating degree days 3036 3121  
Cooling Degree Days 0 1  
Month to date cooling degree days 0 6  
Year to date cooling degree days 2 7  
Growing Degree Days 4 (Base 50)    
Moisture  
Dew Point 29 °F    
Average Humidity 39    
Maximum Humidity 51    
Minimum Humidity 26    
Precipitation  
Precipitation 0.00 in 0.10 in 2.09 in (1912)
Month to date precipitation 0.31 2.64  
Year to date precipitation 4.17 5.61  
Snow  
Snow 0.00 in 0.00 in 2.20 in (1931)
Month to date snowfall T 0.8  
Since 1 July snowfall 7.7 7.5  
Snow Depth -    
Sea Level Pressure  
Sea Level Pressure 30.12 in    
Wind  
Wind Speed 18 mph (South)    
Max Wind Speed 31 mph    
Max Gust Speed 40 mph    
Visibility 10 miles    
Events      
T = Trace of Precipitation, MM = Missing Value Source: NWS Daily Summary

Daily Weather History Graph

Daily Weather History Graph

Search for Another Location

Airport:

Trip Planner

Search our weather history database for the weather conditions in past years. The results will help you decide how hot, cold, wet, or windy it might be!

Date:

Astronomy

Mar. 27, 2013 Rise Set
Actual Time 7:23 AM CDT 7:48 PM CDT
Civil Twilight 6:58 AM CDT 8:13 PM CDT
Nautical Twilight 6:28 AM CDT 8:43 PM CDT
Astronomical Twilight 5:57 AM CDT 9:14 PM CDT
Moon 8:30 PM CDT (3/27) 7:17 AM CDT (3/27)
Length of Visible Light 13h 15m
Length of Day
12h 24m
Full, 100% of the Moon is Illuminated
Mar 27
Full
Apr 2
Last Quarter
Apr 10
New
Apr 18
First Quarter
Apr 25
Full

Hourly Weather History & Observations

Time (CDT) Temp. Windchill Dew Point Humidity Pressure Visibility Wind Dir Wind Speed Gust Speed Precip Events Conditions
12:52 AM 42.1 °F 33.9 °F 21.9 °F 45% 30.21 in 10.0 mi SSE 17.3 mph - N/A   Scattered Clouds
1:52 AM 41.0 °F 33.1 °F 23.0 °F 49% 30.19 in 10.0 mi SSE 15.0 mph - N/A   Scattered Clouds
2:52 AM 39.9 °F 33.4 °F 23.0 °F 51% 30.18 in 10.0 mi SSE 10.4 mph - N/A   Mostly Cloudy
3:52 AM 39.9 °F 31.8 °F 21.9 °F 49% 30.18 in 10.0 mi South 15.0 mph - N/A   Mostly Cloudy
4:52 AM 39.9 °F 32.1 °F 21.9 °F 49% 30.16 in 10.0 mi South 13.8 mph - N/A   Mostly Cloudy
5:52 AM 39.9 °F 32.1 °F 21.9 °F 49% 30.15 in 10.0 mi SSE 13.8 mph - N/A   Mostly Cloudy
6:52 AM 41.0 °F 31.4 °F 21.9 °F 47% 30.15 in 10.0 mi South 21.9 mph - N/A   Mostly Cloudy
7:52 AM 42.1 °F 33.1 °F 23.0 °F 47% 30.18 in 10.0 mi South 20.7 mph 27.6 mph N/A   Mostly Cloudy
8:52 AM 45.0 °F 36.0 °F 23.0 °F 42% 30.18 in 10.0 mi South 25.3 mph 32.2 mph N/A   Overcast
9:52 AM 48.9 °F - 24.1 °F 38% 30.17 in 10.0 mi South 28.8 mph 38.0 mph N/A   Overcast
10:52 AM 53.1 °F - 26.1 °F 35% 30.16 in 10.0 mi South 27.6 mph 39.1 mph N/A   Mostly Cloudy
11:52 AM 57.0 °F - 28.0 °F 33% 30.12 in 10.0 mi South 26.5 mph 38.0 mph N/A   Mostly Cloudy
12:52 PM 60.1 °F - 30.0 °F 32% 30.12 in 10.0 mi South 25.3 mph 33.4 mph N/A   Mostly Cloudy
1:52 PM 64.9 °F - 32.0 °F 29% 30.08 in 10.0 mi South 27.6 mph 34.5 mph N/A   Scattered Clouds
2:52 PM 66.9 °F - 34.0 °F 30% 30.06 in 10.0 mi South 25.3 mph 36.8 mph N/A   Partly Cloudy
3:52 PM 69.1 °F - 34.0 °F 27% 30.04 in 10.0 mi South 25.3 mph 29.9 mph N/A   Partly Cloudy
4:52 PM 69.1 °F - 35.1 °F 29% 30.03 in 10.0 mi South 20.7 mph 29.9 mph N/A   Partly Cloudy
5:52 PM 69.1 °F - 35.1 °F 29% 30.03 in 10.0 mi South 11.5 mph 27.6 mph N/A   Partly Cloudy
6:52 PM 66.9 °F - 36.0 °F 32% 30.03 in 10.0 mi South 13.8 mph - N/A   Scattered Clouds
7:52 PM 63.0 °F - 37.0 °F 38% 30.04 in 10.0 mi SSE 12.7 mph - N/A   Scattered Clouds
8:52 PM 59.0 °F - 37.0 °F 44% 30.06 in 10.0 mi SE 11.5 mph - N/A   Scattered Clouds
9:52 PM 57.0 °F - 37.0 °F 47% 30.08 in 10.0 mi SSE 11.5 mph - N/A   Scattered Clouds
10:52 PM 55.0 °F - 37.0 °F 51% 30.09 in 10.0 mi SE 12.7 mph - N/A   Scattered Clouds
11:52 PM 55.0 °F - 37.0 °F 51% 30.09 in 10.0 mi SSE 12.7 mph - N/A   Partly Cloudy